Marion, IN

2:27 AM EDT on March 30, 2017 (GMT -0400)
Marion Municipal

Weather History for KMZZ - May, 2014

Change the Weather History Date:

Wednesday, May 14, 2014

  Actual Average (KMIE) Record (KMIE)
Temperature  
Mean Temperature 52 °F -  
Max Temperature 55 °F 70 °F 87 °F (1998)
Min Temperature 48 °F 50 °F 38 °F (1973)
Degree Days  
Heating Degree Days 14    
Growing Degree Days 2 (Base 50)    
Moisture  
Dew Point 50 °F    
Average Humidity 89    
Maximum Humidity 97    
Minimum Humidity 80    
Precipitation  
Precipitation 1.05 in - - ()
Sea Level Pressure  
Sea Level Pressure 30.05 in    
Wind  
Wind Speed 9 mph (NNE)    
Max Wind Speed 22 mph    
Max Gust Speed 26 mph    
Visibility 6 miles    
Events Rain    
Averages and records for this station are not official NWS values.
T = Trace of Precipitation, MM = Missing Value Source: NWS Daily Summary

Daily Weather History Graph

Daily Weather History Graph

Search for Another Location

Airport or City:

Trip Planner

Search our weather history database for the weather conditions in past years. The results will help you decide how hot, cold, wet, or windy it might be!

Date:

Astronomy

May. 14, 2014 Rise Set
Actual Time 6:27 AM EDT 8:51 PM EDT
Civil Twilight 5:56 AM EDT 9:22 PM EDT
Nautical Twilight 5:18 AM EDT 10:00 PM EDT
Astronomical Twilight 4:35 AM EDT 10:43 PM EDT
Moon 8:56 PM EDT (5/14) 6:25 AM EDT (5/14)
Length of Visible Light 15h 26m
Length of Day
14h 24m
Full, 100% of the Moon is Illuminated
May 14
Full
May 14
Full
May 21
Last Quarter
May 28
New
Jun 5
First Quarter

Hourly Weather History & Observations

Time (EDT) Temp. Dew Point Humidity Pressure Visibility Wind Dir Wind Speed Gust Speed Precip Events Conditions
12:15 AM 55.6 °F 51.8 °F 87% 30.13 in 7.0 mi NW 11.5 mph - N/A   Overcast
12:35 AM 55.4 °F 50.9 °F 85% 30.12 in 7.0 mi NW 10.4 mph - N/A   Overcast
12:55 AM 55.4 °F 51.1 °F 85% 30.13 in 10.0 mi WNW 6.9 mph - N/A   Overcast
1:15 AM 55.0 °F 50.9 °F 86% 30.14 in 10.0 mi WNW 9.2 mph - N/A   Overcast
1:35 AM 54.9 °F 50.7 °F 86% 30.14 in 7.0 mi WNW 10.4 mph - N/A   Overcast
2:15 AM 54.3 °F 50.0 °F 85% 30.14 in 7.0 mi NW 8.1 mph - N/A   Overcast
2:35 AM 54.0 °F 50.0 °F 86% 30.13 in 7.0 mi NNW 4.6 mph - N/A   Overcast
2:55 AM 53.6 °F 49.8 °F 87% 30.13 in 10.0 mi NW 6.9 mph - N/A Rain Light Rain
3:15 AM 53.6 °F 49.8 °F 87% 30.13 in 7.0 mi NW 8.1 mph - N/A   Overcast
3:35 AM 53.2 °F 49.5 °F 87% 30.13 in 7.0 mi NW 6.9 mph - N/A   Overcast
3:55 AM 53.1 °F 49.3 °F 87% 30.14 in 10.0 mi NW 8.1 mph - N/A   Overcast
4:15 AM 52.9 °F 48.9 °F 86% 30.12 in 7.0 mi North 4.6 mph - N/A   Overcast
4:35 AM 52.9 °F 49.3 °F 88% 30.12 in 7.0 mi Calm Calm - N/A   Overcast
4:55 AM 53.1 °F 49.6 °F 88% 30.14 in 5.0 mi NW 5.8 mph - N/A   Overcast
5:15 AM 53.1 °F 50.0 °F 89% 30.13 in 5.0 mi NNW 4.6 mph - N/A   Overcast
5:35 AM 52.9 °F 49.6 °F 89% 30.12 in 5.0 mi North 5.8 mph - N/A   Overcast
5:55 AM 53.1 °F 49.5 °F 88% 30.12 in 5.0 mi North 6.9 mph - N/A   Overcast
6:15 AM 53.1 °F 49.3 °F 87% 30.14 in 7.0 mi NNE 6.9 mph - N/A   Overcast
6:35 AM 53.1 °F 48.6 °F 85% 30.13 in 7.0 mi NNE 5.8 mph - N/A   Overcast
6:55 AM 52.9 °F 47.8 °F 83% 30.14 in 5.0 mi NNE 4.6 mph - N/A   Haze
7:15 AM 52.9 °F 48.0 °F 84% 30.14 in 7.0 mi North 6.9 mph - N/A   Overcast
7:35 AM 52.9 °F 48.2 °F 84% 30.14 in 7.0 mi North 9.2 mph - N/A   Overcast
7:55 AM 53.1 °F 48.6 °F 85% 30.13 in 7.0 mi NNE 8.1 mph - N/A   Overcast
8:15 AM 53.2 °F 48.6 °F 84% 30.14 in 7.0 mi North 5.8 mph - N/A   Overcast
8:35 AM 53.6 °F 48.6 °F 83% 30.14 in 7.0 mi NE 6.9 mph - N/A   Overcast
8:55 AM 53.8 °F 48.9 °F 84% 30.13 in 7.0 mi NNE 9.2 mph - N/A   Overcast
9:15 AM 54.1 °F 48.9 °F 82% 30.14 in 7.0 mi NNE 6.9 mph - N/A   Overcast
9:35 AM 54.3 °F 49.1 °F 83% 30.13 in 7.0 mi NNE 8.1 mph - N/A   Overcast
9:55 AM 54.7 °F 49.3 °F 82% 30.13 in 10.0 mi NNE 9.2 mph - N/A   Overcast
10:15 AM 55.0 °F 49.3 °F 81% 30.14 in 10.0 mi NNE 5.8 mph - N/A   Overcast
10:35 AM 55.0 °F 48.9 °F 80% 30.14 in 7.0 mi North 6.9 mph - N/A   Overcast
10:55 AM 54.7 °F 48.9 °F 81% 30.13 in 7.0 mi NNE 9.2 mph - N/A   Overcast
11:35 AM 54.5 °F 49.1 °F 82% 30.13 in 5.0 mi NE 6.9 mph - 0.01 in Rain Light Rain
11:55 AM 54.7 °F 50.2 °F 85% 30.12 in 5.0 mi ENE 10.4 mph - 0.02 in   Haze
12:15 PM 55.2 °F 50.9 °F 85% 30.10 in 5.0 mi NE 10.4 mph - N/A   Overcast
12:55 PM 55.8 °F 51.6 °F 86% 30.06 in 7.0 mi NE 12.7 mph 17.3 mph 0.01 in Rain Light Rain
1:15 PM 55.6 °F 51.4 °F 86% 30.06 in 7.0 mi NE 12.7 mph - 0.01 in   Overcast
1:35 PM 55.4 °F 51.8 °F 88% 30.05 in 4.0 mi ENE 9.2 mph - 0.02 in Rain Light Rain
1:55 PM 55.0 °F 51.8 °F 89% 30.04 in 5.0 mi ENE 10.4 mph - 0.05 in Rain Light Rain
2:15 PM 55.0 °F 51.8 °F 89% 30.05 in 4.0 mi NNE 6.9 mph - 0.02 in Rain Light Rain
2:35 PM 54.9 °F 51.8 °F 89% 30.04 in 4.0 mi NE 6.9 mph - 0.05 in   Overcast
2:55 PM 55.0 °F 52.2 °F 90% 30.04 in 3.0 mi NNE 8.1 mph - 0.08 in Rain Light Rain
3:15 PM 55.2 °F 52.2 °F 89% 30.04 in 7.0 mi NE 9.2 mph - 0.01 in   Overcast
3:35 PM 55.2 °F 51.8 °F 88% 30.02 in 4.0 mi NNE 10.4 mph - 0.02 in Rain Light Rain
4:15 PM 55.4 °F 52.2 °F 89% 30.01 in 3.0 mi NNE 11.5 mph 16.1 mph N/A   Overcast
4:35 PM 55.2 °F 52.3 °F 90% 30.00 in 4.0 mi NE 11.5 mph 17.3 mph 0.01 in   Overcast
4:55 PM 55.2 °F 52.5 °F 91% 29.99 in 2.0 mi NNE 10.4 mph 19.6 mph 0.01 in   Overcast
5:15 PM 55.0 °F 52.5 °F 91% 29.98 in 4.0 mi NNE 11.5 mph 18.4 mph N/A   Overcast
5:35 PM 54.7 °F 52.9 °F 94% 29.97 in 10.0 mi NE 11.5 mph 18.4 mph N/A   Overcast
5:55 PM 54.7 °F 53.4 °F 96% 29.96 in 7.0 mi NE 12.7 mph - N/A   Overcast
6:15 PM 54.5 °F 53.4 °F 96% 29.96 in 2.0 mi NNE 12.7 mph 18.4 mph N/A Rain Light Rain
6:35 PM 53.8 °F 52.7 °F 96% 29.95 in 4.0 mi NE 11.5 mph 20.7 mph N/A   Overcast
6:55 PM 53.6 °F 52.7 °F 97% 29.93 in 2.5 mi NNE 16.1 mph 20.7 mph N/A   Overcast
7:15 PM 53.2 °F 52.2 °F 96% 29.92 in 2.5 mi NNE 15.0 mph 19.6 mph N/A Rain Light Rain
7:35 PM 52.9 °F 51.8 °F 96% 29.91 in 2.5 mi NNE 15.0 mph 23.0 mph 0.03 in Rain Rain
7:55 PM 52.7 °F 51.4 °F 95% 29.90 in 1.5 mi NNE 16.1 mph 20.7 mph 0.20 in Rain Heavy Rain
8:15 PM 52.5 °F 51.1 °F 95% 29.91 in 3.0 mi NNE 15.0 mph 19.6 mph 0.08 in Rain Heavy Rain
8:35 PM 52.2 °F 50.7 °F 95% 29.92 in 2.5 mi NNE 15.0 mph - 0.20 in Rain Heavy Rain
8:55 PM 51.8 °F 50.2 °F 94% 29.96 in 2.5 mi NW 6.9 mph - 0.40 in Rain Heavy Rain
9:15 PM 51.3 °F 49.8 °F 95% 29.95 in 7.0 mi NNW 6.9 mph - 0.05 in Rain Light Rain
9:35 PM 50.9 °F 49.5 °F 95% 29.93 in 5.0 mi North 13.8 mph 19.6 mph 0.09 in Rain Rain
9:55 PM 50.5 °F 48.7 °F 94% 29.91 in 4.0 mi North 16.1 mph 19.6 mph 0.17 in Rain Rain
10:15 PM 49.6 °F 47.8 °F 94% 29.89 in 10.0 mi North 20.7 mph 26.5 mph 0.02 in Rain Light Rain
10:35 PM 48.9 °F 46.9 °F 93% 29.88 in 4.0 mi NNE 21.9 mph 26.5 mph 0.05 in Rain Light Rain
10:55 PM 48.6 °F 46.8 °F 93% 29.86 in 5.0 mi NNE 18.4 mph 24.2 mph 0.08 in Rain Light Rain
11:15 PM 48.6 °F 46.9 °F 94% 29.87 in 7.0 mi NNE 12.7 mph - 0.01 in Rain Light Rain
11:35 PM 48.9 °F 47.3 °F 94% 29.85 in 10.0 mi NNE 11.5 mph 20.7 mph 0.01 in   Overcast